Terminal Aerodrome Forecast
Issued by NWS Brownsville, TX

Home | Current Version | Previous Version | Text Only | Print | Product List | Glossary On
Versions: 1 2 3 4 5 6 7 8 9 10 11 12 13 14 15 16 17 18 19 20 21 22 23
000
FTUS44 KBRO 230700 AAA
TAFHRL
TAF AMD
KHRL 230741Z 2308/2406 15005KT P6SM BKN015
     FM231500 15012KT P6SM BKN030
     FM231700 15018G25KT P6SM BKN050=

USA.gov is the U.S. government's official web portal to all federal, state and local government web resources and services.